GW0136 Weather Reports


time (UTC)temp
F
wind
direction
speed
knots
gust
knots
rain 1hr
in
rain 24hr
in
rain mn
in
humidity
%
barometer
mb
20260505201026 69 198 11.3 24.3 0.00 0.12 0.12 39 1013.5
20260505200523 69 148 8.7 20.9 0.00 0.12 0.12 42 1013.4
20260505200043 68 158 8.7 19.1 0.00 0.12 0.12 42 1013.5
20260505195524 68 208 9.6 19.1 0.00 0.12 0.12 43 1013.6
20260505195022 68 185 9.6 21.7 0.00 0.12 0.12 42 1013.7
20260505194535 67 167 13.0 21.7 0.00 0.12 0.12 42 1013.7
20260505194026 67 142 10.4 19.1 0.00 0.12 0.12 43 1013.8
20260505193522 65 175 11.3 20.9 0.00 0.12 0.12 44 1013.9
20260505193034 66 202 10.4 20.9 0.00 0.12 0.12 45 1013.9
20260505192523 65 225 11.3 21.7 0.00 0.12 0.12 43 1013.8
20260505192020 66 139 7.8 23.5 0.00 0.12 0.12 45 1013.8
20260505191539 66 206 13.0 23.5 0.00 0.12 0.12 43 1014.0
20260505191023 67 181 10.4 19.1 0.00 0.12 0.12 44 1014.1
20260505190519 66 152 7.0 19.1 0.00 0.12 0.12 45 1014.2
20260505190037 64 360 9.6 19.1 0.00 0.12 0.12 48 1014.1
20260505185522 64 202 9.6 20.9 0.00 0.12 0.12 47 1014.3
20260505185021 64 186 8.7 22.6 0.00 0.12 0.12 46 1014.4
20260505184537 64 221 14.8 22.6 0.00 0.12 0.12 46 1014.5
20260505184026 64 235 10.4 22.6 0.00 0.12 0.12 45 1014.4
20260505183521 64 194 10.4 22.6 0.00 0.12 0.12 46 1014.7
20260505183036 64 217 12.2 24.3 0.00 0.12 0.12 43 1014.5
20260505182522 65 211 5.2 24.3 0.00 0.12 0.12 49 1014.3
20260505182019 64 229 8.7 20.0 0.00 0.12 0.12 46 1014.5
20260505181542 64 219 7.8 20.9 0.00 0.12 0.12 52 1014.5
20260505181023 64 195 10.4 20.9 0.00 0.12 0.12 50 1014.5
20260505180522 64 165 7.0 17.4 0.00 0.12 0.12 53 1014.6
20260505180039 64 232 7.0 17.4 0.00 0.12 0.12 51 1014.6
20260505175522 65 257 7.0 14.8 0.00 0.12 0.12 54 1014.9
20260505175019 63 125 6.1 14.8 0.00 0.12 0.12 53 1014.6
20260505174541 63 186 4.3 14.8 0.00 0.12 0.12 58 1014.8
20260505174018 63 142 7.0 14.8 0.00 0.12 0.12 57 1014.4
20260505173522 63 170 8.7 14.8 0.00 0.12 0.12 54 1014.9
20260505173035 63 172 4.3 17.4 0.00 0.12 0.12 58 1014.9
20260505172521 63 233 9.6 17.4 0.00 0.12 0.12 60 1014.9
20260505172022 62 198 5.2 16.5 0.00 0.12 0.12 61 1014.8
20260505171533 62 159 6.1 21.7 0.00 0.12 0.12 61 1014.8
20260505171023 61 199 7.0 21.7 0.00 0.12 0.12 64 1014.8
20260505170523 60 124 8.7 20.9 0.00 0.12 0.12 61 1014.7
20260505170045 60 167 9.6 19.1 0.00 0.12 0.12 64 1014.6
20260505165523 59 169 7.8 14.8 0.00 0.12 0.12 67 1014.8
20260505165019 59 162 7.0 13.0 0.00 0.12 0.12 66 1014.9
20260505164533 58 188 6.1 14.8 0.00 0.12 0.12 70 1014.8
20260505164024 57 189 5.2 15.6 0.01 0.12 0.12 68 1015.0
20260505163519 57 181 8.7 15.6 0.01 0.12 0.12 69 1015.0
20260505163037 56 170 7.0 12.2 0.01 0.12 0.12 72 1015.0
20260505162521 56 167 6.1 13.9 0.01 0.12 0.12 71 1014.9
20260505162022 55 155 6.1 13.9 0.01 0.12 0.12 75 1014.9
20260505161535 55 194 6.1 15.6 0.01 0.12 0.12 77 1015.0
20260505161022 54 173 7.8 15.6 0.02 0.12 0.12 77 1015.0
20260505160522 54 186 6.1 13.9 0.02 0.12 0.12 78 1014.8
20260505153037 56 152 8.7 18.2 0.09 0.11 0.11 75 1014.5
20260505152523 56 182 7.8 14.8 0.09 0.11 0.11 81 1014.6
20260505152022 54 175 6.1 13.0 0.10 0.11 0.11 79 1014.3
20260505151553 53 161 3.5 13.0 0.10 0.11 0.11 81 1014.1
20260505151022 53 145 7.0 13.0 0.09 0.10 0.10 79 1014.3
20260505150523 53 160 6.1 16.5 0.08 0.09 0.09 78 1014.5
20260505140522 55 148 4.3 9.6 0.01 0.01 0.01 69 1013.7
20260505125022 53 0 0.0 3.5 0.00 0.00 0.00 79 1013.9
20260505124541 52 168 1.7 5.2 0.00 0.00 0.00 78 1014.3
20260505124027 53 168 2.6 5.2 0.00 0.00 0.00 76 1014.1
20260505123522 53 115 0.9 6.1 0.00 0.00 0.00 77 1014.6
20260505123040 53 115 1.7 7.0 0.00 0.00 0.00 73 1014.5
20260505122522 54 118 2.6 7.8 0.00 0.00 0.00 72 1014.3
20260505122022 54 157 2.6 7.8 0.00 0.00 0.00 68 1014.3
20260505121537 54 141 3.5 7.8 0.00 0.00 0.00 67 1014.3
20260505121023 54 160 4.3 7.8 0.00 0.00 0.00 65 1014.1
20260505120524 54 145 4.3 9.6 0.00 0.00 0.00 65 1014.1
20260505120039 55 156 5.2 9.6 0.00 0.00 0.00 65 1014.0
20260505115521 55 163 3.5 7.0 0.00 0.00 0.00 65 1014.1
20260505115023 55 197 3.5 7.0 0.00 0.00 0.00 64 1014.2
20260505114541 55 168 2.6 5.2 0.00 0.00 0.00 62 1014.3
20260505114024 55 190 3.5 5.2 0.00 0.00 0.00 62 1014.3
20260505113522 55 199 2.6 5.2 0.00 0.00 0.00 61 1014.3
20260505113041 55 176 1.7 5.2 0.00 0.00 0.00 60 1014.6
20260505112522 56 167 1.7 5.2 0.00 0.00 0.00 60 1014.5
20260505112022 56 113 0.9 6.1 0.00 0.00 0.00 59 1014.5
20260505111541 56 113 1.7 6.1 0.00 0.00 0.00 57 1014.7
20260505111022 57 173 2.6 6.1 0.00 0.00 0.00 53 1014.7
20260505110523 57 208 4.3 6.1 0.00 0.00 0.00 52 1014.7
20260505102022 57 214 0.9 2.6 0.00 0.00 0.00 53 1015.0
20260505101541 57 0 0.9 3.5 0.00 0.00 0.00 49 1014.7
20260505101022 57 214 0.9 5.2 0.00 0.00 0.00 49 1014.7
20260505100523 57 214 2.6 5.2 0.00 0.00 0.00 50 1014.7
20260505100035 57 203 3.5 5.2 0.00 0.00 0.00 50 1014.9
20260505095522 57 217 1.7 6.1 0.00 0.00 0.00 50 1014.7
20260505095022 57 207 3.5 6.1 0.00 0.00 0.00 51 1014.9
20260505094537 57 222 4.3 6.1 0.00 0.00 0.00 51 1014.9
20260505094022 56 205 3.5 5.2 0.00 0.00 0.00 52 1014.9
20260505093522 56 200 3.5 5.2 0.00 0.00 0.00 53 1015.1
20260505093040 57 163 2.6 5.2 0.00 0.00 0.00 52 1015.0
20260505092522 57 159 1.7 5.2 0.00 0.00 0.00 51 1015.1
20260505092022 58 210 0.0 3.5 0.00 0.00 0.00 48 1015.1
20260505091538 58 210 0.9 3.5 0.00 0.00 0.00 47 1015.1
20260505091024 58 210 0.9 3.5 0.00 0.00 0.00 47 1015.1
20260505090522 58 0 1.7 4.3 0.00 0.00 0.00 46 1015.1
20260505090051 58 210 1.7 5.2 0.00 0.00 0.00 47 1015.1
20260505085524 58 210 1.7 5.2 0.00 0.00 0.00 46 1015.1
20260505085022 58 171 2.6 5.2 0.00 0.00 0.00 47 1015.4
20260505084537 58 171 2.6 5.2 0.00 0.00 0.00 45 1015.3
20260505084022 58 0 0.9 5.2 0.00 0.00 0.00 44 1015.1
20260505083523 57 153 1.7 4.3 0.00 0.00 0.00 46 1015.1
20260505083039 57 203 1.7 6.1 0.00 0.00 0.00 48 1015.2
20260505082522 57 203 2.6 6.1 0.00 0.00 0.00 48 1015.3
20260505082019 57 212 2.6 4.3 0.00 0.00 0.00 51 1015.7
20260505081542 57 196 1.7 6.1 0.00 0.00 0.00 53 1015.8
20260505081023 56 189 3.5 6.1 0.00 0.00 0.00 52 1015.8
20260505080522 57 189 1.7 5.2 0.00 0.00 0.00 52 1015.7
20260505080033 57 181 2.6 5.2 0.00 0.00 0.00 51 1015.5
20260505075522 57 180 2.6 6.1 0.00 0.00 0.00 50 1015.6
20260505075022 57 182 3.5 6.1 0.00 0.00 0.00 50 1015.5
20260505074535 57 202 3.5 7.0 0.00 0.00 0.00 51 1015.6
20260505074022 57 173 2.6 7.0 0.00 0.00 0.00 52 1015.7
20260505073523 57 157 2.6 5.2 0.00 0.00 0.00 50 1015.8
20260505073038 57 208 3.5 5.2 0.00 0.00 0.00 50 1015.8
20260505072523 57 177 3.5 5.2 0.00 0.00 0.00 49 1015.7
20260505072023 58 177 2.6 5.2 0.00 0.00 0.00 49 1015.6
20260505071536 58 0 0.9 4.3 0.00 0.00 0.00 48 1015.6
20260505071022 58 212 3.5 5.2 0.00 0.00 0.00 49 1015.8
20260505070525 58 219 2.6 5.2 0.00 0.00 0.00 48 1015.8
20260505070042 58 211 3.5 5.2 0.00 0.00 0.00 48 1015.7
20260505065524 58 190 1.7 4.3 0.00 0.00 0.00 48 1015.8
20260505065022 58 207 2.6 4.3 0.00 0.00 0.00 47 1015.8
20260505064536 58 213 1.7 4.3 0.00 0.00 0.00 46 1015.8
20260505064022 58 213 1.7 4.3 0.00 0.00 0.00 47 1015.8
20260505063522 58 213 3.5 5.2 0.00 0.00 0.00 46 1015.8
20260505063042 58 203 2.6 5.2 0.00 0.00 0.00 46 1015.8
20260505062524 58 212 3.5 7.0 0.00 0.00 0.00 46 1015.9
20260505062023 58 214 4.3 7.0 0.00 0.00 0.00 46 1016.0
20260505061543 58 173 1.7 4.3 0.00 0.00 0.00 47 1015.9
20260505061027 59 0 0.0 2.6 0.00 0.00 0.00 46 1015.7
20260505060522 59 178 0.0 2.6 0.00 0.00 0.00 46 1015.9
20260505060037 59 0 0.9 3.5 0.00 0.00 0.00 47 1016.1
20260505055523 59 178 0.9 4.3 0.00 0.00 0.00 46 1015.9
20260505055023 59 178 2.6 7.8 0.00 0.00 0.00 46 1016.0
20260505054540 59 178 1.7 7.8 0.00 0.00 0.00 45 1016.1
20260505054026 60 104 3.5 8.7 0.00 0.00 0.00 42 1015.9
20260505053522 60 243 1.7 8.7 0.00 0.00 0.00 39 1015.9
20260505053043 60 271 3.5 7.0 0.00 0.00 0.00 42 1015.6
20260505052522 60 238 3.5 11.3 0.00 0.00 0.00 41 1015.7
20260505052022 60 174 4.3 11.3 0.00 0.00 0.00 41 1015.5
20260505051537 60 171 4.3 9.6 0.00 0.00 0.00 40 1015.8
20260505051022 61 176 5.2 9.6 0.00 0.00 0.00 39 1016.0
20260505050524 63 165 6.1 9.6 0.00 0.00 0.00 35 1015.9
20260505041533 65 53 2.6 9.6 0.00 0.00 0.00 29 1016.1
20260505041022 64 242 2.6 17.4 0.00 0.00 0.00 30 1016.0
20260505040522 64 189 5.2 17.4 0.00 0.00 0.00 30 1015.9
20260505040041 64 325 3.5 16.5 0.00 0.00 0.00 30 1015.8
20260505035522 64 271 9.6 16.5 0.00 0.00 0.00 30 1015.8
20260505035022 64 265 9.6 16.5 0.00 0.00 0.00 30 1015.7
20260505034534 65 293 8.7 19.1 0.00 0.00 0.00 30 1015.7
20260505034023 65 329 12.2 19.1 0.00 0.00 0.00 30 1015.6
20260505033523 65 313 10.4 18.2 0.00 0.00 0.00 30 1015.5
20260505033100 65 305 8.7 15.6 0.00 0.00 0.00 30 1015.5
20260505032522 65 301 8.7 14.8 0.00 0.00 0.00 30 1015.4
20260505032022 65 294 10.4 14.8 0.00 0.00 0.00 30 1015.3
20260505031538 65 335 7.8 13.0 0.00 0.00 0.00 30 1015.2
20260505031022 66 319 7.8 14.8 0.00 0.00 0.00 30 1015.3
20260505030522 66 329 8.7 14.8 0.00 0.00 0.00 30 1015.3
20260505030042 66 325 7.8 12.2 0.00 0.00 0.00 30 1015.2
20260505025524 66 328 7.8 13.0 0.00 0.00 0.00 30 1015.0
20260505025021 66 332 9.6 13.0 0.00 0.00 0.00 30 1014.9
20260505024536 66 311 7.8 14.8 0.00 0.00 0.00 30 1015.0
20260505024023 66 336 8.7 15.6 0.00 0.00 0.00 29 1015.0
20260505023526 66 327 8.7 15.6 0.00 0.00 0.00 29 1015.2
20260505023044 66 317 7.8 12.2 0.00 0.00 0.00 29 1015.3
20260505022527 67 327 7.8 13.0 0.00 0.00 0.00 29 1015.3
20260505022023 67 339 7.8 13.0 0.00 0.00 0.00 28 1015.1
20260505021536 66 345 8.7 13.0 0.00 0.00 0.00 29 1015.1
20260505021026 66 325 7.0 13.0 0.00 0.00 0.00 29 1015.1
20260505020522 67 331 5.2 10.4 0.00 0.00 0.00 30 1014.9
20260505020034 67 342 6.1 8.7 0.00 0.00 0.00 29 1014.9
20260505015522 67 350 0.9 7.0 0.00 0.00 0.00 29 1014.9
20260505015021 67 40 1.7 7.0 0.00 0.00 0.00 27 1014.9
20260505014539 68 5 1.7 5.2 0.00 0.00 0.00 28 1015.0
20260505014022 68 100 0.0 7.0 0.00 0.00 0.00 27 1015.2
20260505013522 69 111 2.6 7.0 0.00 0.00 0.00 24 1015.1
20260505013037 69 280 2.6 7.0 0.00 0.00 0.00 23 1015.1
20260505012522 70 81 1.7 10.4 0.00 0.00 0.00 21 1015.0
20260505012023 70 157 4.3 11.3 0.00 0.00 0.00 20 1015.1
20260505011536 70 188 4.3 11.3 0.00 0.00 0.00 21 1015.1
20260505011022 70 130 2.6 7.0 0.00 0.00 0.00 20 1015.0
20260505010522 71 157 1.7 8.7 0.00 0.00 0.00 20 1015.0
20260505010040 71 262 2.6 13.9 0.00 0.00 0.00 20 1015.1
20260505005522 71 186 2.6 13.9 0.00 0.00 0.00 19 1015.1
20260505005023 71 266 4.3 7.8 0.00 0.00 0.00 19 1015.1
20260505004543 71 0 0.9 7.0 0.00 0.00 0.00 20 1014.9
20260505004023 72 136 4.3 10.4 0.00 0.00 0.00 20 1015.0
20260505003522 72 0 1.7 10.4 0.00 0.00 0.00 19 1015.1
20260505003038 73 9 4.3 8.7 0.00 0.00 0.00 19 1014.9
20260505002522 73 236 0.9 12.2 0.00 0.00 0.00 19 1014.9
20260505002023 73 158 4.3 12.2 0.00 0.00 0.00 18 1014.8
20260505001537 73 205 4.3 10.4 0.00 0.00 0.00 19 1014.6
20260505001022 74 182 3.5 9.6 0.00 0.00 0.00 18 1014.6
20260505000526 73 129 4.3 13.0 0.00 0.00 0.00 19 1014.5
20260505000037 73 0 3.5 13.0 0.00 0.00 0.00 18 1014.6
20260504235523 73 252 5.2 8.7 0.00 0.00 0.00 18 1014.6
20260504235022 74 179 4.3 10.4 0.00 0.00 0.00 19 1014.5
20260504234548 74 350 5.2 13.0 0.00 0.00 0.00 18 1014.6
20260504234022 74 165 5.2 16.5 0.00 0.00 0.00 17 1014.4
20260504233523 74 151 5.2 16.5 0.00 0.00 0.00 18 1014.5
20260504233035 74 132 6.1 15.6 0.00 0.00 0.00 18 1014.6
20260504232523 74 190 8.7 18.2 0.00 0.00 0.00 18 1014.4
20260504232022 74 271 8.7 18.2 0.00 0.00 0.00 18 1014.3
20260504231550 75 177 7.8 18.2 0.00 0.00 0.00 18 1014.3
20260504231022 76 193 6.1 13.9 0.00 0.00 0.00 18 1014.2
20260504230522 76 163 3.5 14.8 0.00 0.00 0.00 17 1014.2
20260504230037 76 157 7.0 14.8 0.00 0.00 0.00 17 1014.5
20260504225525 76 127 6.1 11.3 0.00 0.00 0.00 16 1014.6
20260504225024 76 331 3.5 17.4 0.00 0.00 0.00 18 1014.7
20260504224536 76 142 7.0 17.4 0.00 0.00 0.00 18 1014.9
20260504224022 76 192 9.6 17.4 0.00 0.00 0.00 18 1014.6
20260504223524 76 244 7.8 15.6 0.00 0.00 0.00 18 1014.4
20260504223033 76 146 6.1 12.2 0.00 0.00 0.00 18 1014.4
20260504222526 76 275 2.6 13.9 0.00 0.00 0.00 19 1014.5
20260504222022 76 44 5.2 16.5 0.00 0.00 0.00 19 1014.4
20260504221533 77 165 7.8 16.5 0.00 0.00 0.00 19 1014.4
20260504221027 77 186 8.7 16.5 0.00 0.00 0.00 19 1014.6
20260504220522 76 130 4.3 8.7 0.00 0.00 0.00 20 1014.7
20260504220040 77 135 2.6 13.0 0.00 0.00 0.00 20 1014.9
20260504215522 75 246 3.5 20.9 0.00 0.00 0.00 20 1014.9
20260504215023 76 211 9.6 20.9 0.00 0.00 0.00 21 1015.2
20260504214540 76 163 9.6 20.9 0.00 0.00 0.00 22 1014.8
20260504214024 76 173 9.6 20.9 0.00 0.00 0.00 21 1014.9
20260504213526 76 155 12.2 20.9 0.00 0.00 0.00 21 1015.0
20260504213036 76 189 6.1 17.4 0.00 0.00 0.00 21 1015.1
20260504212522 76 217 9.6 17.4 0.00 0.00 0.00 21 1015.1
20260504212021 76 141 6.1 15.6 0.00 0.00 0.00 21 1015.2
20260504211532 76 135 6.1 17.4 0.00 0.00 0.00 21 1015.3
20260504211022 76 220 3.5 20.9 0.00 0.00 0.00 21 1015.2
20260504210525 77 184 10.4 20.9 0.00 0.00 0.00 20 1015.4
20260504210105 78 179 7.0 23.5 0.00 0.00 0.00 20 1015.1
20260504205526 77 130 7.8 23.5 0.00 0.00 0.00 19 1015.4
20260504205022 79 165 6.1 15.6 0.00 0.00 0.00 20 1015.3
20260504204618 77 142 5.2 18.2 0.00 0.00 0.00 22 1015.6
20260504204022 78 180 9.6 18.2 0.00 0.00 0.00 20 1015.5
20260504203522 78 180 9.6 20.0 0.00 0.00 0.00 20 1015.5
20260504203038 78 192 10.4 20.0 0.00 0.00 0.00 20 1015.6
20260504202522 77 173 7.0 15.6 0.00 0.00 0.00 21 1015.6
20260504202021 76 134 3.5 15.6 0.00 0.00 0.00 21 1015.6
20260504201536 76 141 9.6 15.6 0.00 0.00 0.00 20 1015.7